Regional Weather Roundup
Issued by NWS

Home | Current Version | Previous Version | Graphics & Text | Print | Product List | Glossary On
Versions: 1 2 3 4 5 6 7 8 9 10 11 12 13 14 15 16 17 18 19 20 21 22 23 24 25 26 27 28 29 30 31 32 33 34 35 36 37 38 39 40 41 42 43 44 45 46 47 48 49 50
281
ASUS43 KIND 230000
RWRIN

WEATHER ROUNDUP FOR INDIANA
NATIONAL WEATHER SERVICE INDIANAPOLIS IN
800 PM EDT SAT JUL 22 2017

NOTE: "FAIR" INDICATES FEW OR NO CLOUDS BELOW 12,000 FEET WITH NO
SIGNIFICANT WEATHER AND/OR OBSTRUCTIONS TO VISIBILITY.

* - STATION DOES NOT REPORT WEATHER SUCH AS PRECIPITATION OR FOG.

+ - STATION NOT QUALITY CONTROLLED BY THE NATIONAL WEATHER SERVICE.
    USE DATA WITH CAUTION...ESPECIALLY DEWPOINT AND RELATIVE
    HUMIDITY OBSERVATIONS.

INZ001>003-010>013-019-020-230100-
NORTHWEST INDIANA

CITY           SKY/WX    TMP DP  RH WIND       PRES   REMARKS
MICHIGAN CITY+ SUNNY     79  68  69 N3        29.82S
MONTICELLO +   CLOUDY    80  74  80 NW3       29.80F
6HR MIN TEMP:  79; 6HR MAX TEMP:  83;

RENSSELAER +   CLOUDY    81  72  74 CALM      29.81F

$$

LMZ046-743>745-230100-
SOUTHERN LAKE MICHIGAN

STATION/POSITION TIME  TEMP    WIND        PRES    WAVE
                       AIR SEA DIR/SP/G            HT
                 (UTC) (F)     (DEG/KT/KT) (MB)    (FT)
BURNS HARBOR     2340   79      70/  7/  9 1009.8S
MICHIGAN CITY    2330   76      20/  6/  6   N/A
5NW MICH CITY    2350   77 77   40/  4/  6   N/A     0

$$

INZ004-005-014>016-021>024-230100-
NORTH CENTRAL INDIANA

CITY           SKY/WX    TMP DP  RH WIND       PRES   REMARKS
GOSHEN         CLOUDY    80  68  66 NW8       29.81S
6HR MIN TEMP:  80; 6HR MAX TEMP:  85;

SOUTH BEND     SUNNY     79  70  74 NW7       29.82S
6HR MIN TEMP:  78; 6HR MAX TEMP:  83;


$$

INZ006>009-017-018-025>027-230100-
NORTHEAST INDIANA

CITY           SKY/WX    TMP DP  RH WIND       PRES   REMARKS
FORT WAYNE     MOSUNNY   81  71  71 W7        29.81S
6HR MIN TEMP:  81; 6HR MAX TEMP:  85;

KENDALLVILLE + PTSUNNY   79  69  71 NW8G16    29.82R

$$

INZ028-029-035-036-043>045-051>053-230100-
WEST CENTRAL INDIANA

CITY           SKY/WX    TMP DP  RH WIND       PRES   REMARKS
LAFAYETTE      CLOUDY    81  75  82 N5        29.80F
6HR MIN TEMP:  81; 6HR MAX TEMP:  85;

TERRE HAUTE    MOSUNNY   86  77  74 NE8       29.80S HAZE    HX  97
6HR MIN TEMP:  86; 6HR MAX TEMP:  93;


$$

INZ030>032-037>040-046>048-054>057-064-065-230100-
CENTRAL INDIANA

CITY           SKY/WX    TMP DP  RH WIND       PRES   REMARKS
COLUMBUS       CLOUDY    84  68  58 NE6       29.81F
GREENWOOD *+   CLOUDY   N/A N/A N/A N3        29.83S
INDIANAPOLIS   CLOUDY    84  73  69 N5        29.81S
6HR MIN TEMP:  84; 6HR MAX TEMP:  90; 6HR PCP: TRACE;

-EAGLE CREEK   CLOUDY    83  74  74 CALM      29.81S
6HR MIN TEMP:  83; 6HR MAX TEMP:  88;

KOKOMO +       PTSUNNY   81  73  76 NW6       29.83S
6HR MIN TEMP:  80; 6HR MAX TEMP:  84;

MT COMFORT *+  PTSUNNY   82  72  69 NW3       29.82F
SHELBYVILLE    LGT RAIN  86  73  65 CALM      29.82R
6HR MIN TEMP:  84; 6HR MAX TEMP:  91; 6HR PCP: TRACE;


$$

INZ033-034-041-042-049-050-058-059-230100-
EAST CENTRAL INDIANA

CITY           SKY/WX    TMP DP  RH WIND       PRES   REMARKS
MUNCIE         PTSUNNY   83  72  69 N6        29.82F
6HR MIN TEMP:  83; 6HR MAX TEMP:  86;

RICHMOND +     PTSUNNY   81  70  69 NW6       29.85S

$$

INZ060-061-067>069-081>083-085>088-230100-
SOUTHWEST INDIANA

CITY           SKY/WX    TMP DP  RH WIND       PRES   REMARKS
EVANSVILLE     SUNNY     94  71  47 SW13      29.81S HX 101
6HR MIN TEMP:  93; 6HR MAX TEMP:  99;

HUNTINGBURG *+ SUNNY     91  74  57 SW12      29.82R HX 100
6HR MIN TEMP:  91; 6HR MAX TEMP:  96;


$$

INZ062-063-066-070>080-084-089>092-230100-
SOUTH CENTRAL AND SOUTHEAST INDIANA

CITY           SKY/WX    TMP DP  RH WIND       PRES   REMARKS
BLOOMINGTON    PTSUNNY   88  74  63 SW7       29.81F HX  96
6HR MIN TEMP:  88; 6HR MAX TEMP:  94;

MADISON *+     PTSUNNY   90  70  51 SW6       29.85R HX  95
SEYMOUR +      CLOUDY    90  75  62 W5        29.80S HX 100

$$





USA.gov is the U.S. government's official web portal to all federal, state and local government web resources and services.